This is the latest recevied weather packets stored in our database for station/object N8JE-13. If no packets are shown the sender has not sent any weather packets the latest 10 day(s).
| Time | Temp. | Humidity | Pressure | Rain* | Wind** | Luminosity | Snow |
|---|---|---|---|---|---|---|---|
| 1777299392 | 16.67° C | 75% | 1017.1 hPa | 0 mm | - | - | - |
| 1777299093 | 16.67° C | 76% | 1017.2 hPa | 0 mm | - | - | - |
| 1777298792 | 16.11° C | 76% | 1017.3 hPa | 0 mm | - | - | - |
| 1777298492 | 16.11° C | 77% | 1017.1 hPa | 0 mm | - | - | - |
| 1777298193 | 16.11° C | 77% | 1017.2 hPa | 0 mm | - | - | - |
| 1777297892 | 15.56° C | 77% | 1017.2 hPa | 0 mm | - | - | - |
| 1777297592 | 15.56° C | 77% | 1017.1 hPa | 0 mm | - | - | - |
| 1777297292 | 15.56° C | 77% | 1017.2 hPa | 0 mm | - | - | - |
| 1777296992 | 15.56° C | 77% | 1017.2 hPa | 0 mm | - | - | - |
| 1777296692 | 15° C | 78% | 1017.2 hPa | 0 mm | - | - | - |
| 1777296392 | 14.44° C | 78% | 1017.3 hPa | 0 mm | - | - | - |
| 1777296091 | 14.44° C | 78% | 1017.2 hPa | 0 mm | - | - | - |
| 1777295791 | 14.44° C | 78% | 1017.3 hPa | 0 mm | - | - | - |
| 1777295492 | 13.89° C | 79% | 1017.2 hPa | 0 mm | - | - | - |
| 1777295192 | 13.89° C | 79% | 1017.3 hPa | 0 mm | - | - | - |
| 1777294892 | 13.33° C | 79% | 1017.3 hPa | 0 mm | - | - | - |
| 1777294591 | 13.33° C | 79% | 1017.2 hPa | 0 mm | - | - | - |
| 1777294291 | 13.33° C | 80% | 1017.2 hPa | 0 mm | - | - | - |
| 1777293993 | 12.78° C | 80% | 1017.4 hPa | 0 mm | - | - | - |
| 1777293692 | 12.78° C | 81% | 1017.4 hPa | 0 mm | - | - | - |
| 1777293391 | 12.22° C | 82% | 1017.3 hPa | 0 mm | - | - | - |
| 1777293092 | 12.22° C | 82% | 1017.3 hPa | 0 mm | - | - | - |
| 1777292792 | 11.67° C | 82% | 1017.4 hPa | 0 mm | - | - | - |
| 1777292491 | 11.67° C | 82% | 1017.4 hPa | 0 mm | - | - | - |
| 1777292193 | 11.67° C | 83% | 1017.4 hPa | 0 mm | - | - | - |
* Rain latest hour (hover to see other rain measurements)
** Current wind speed in m/s (hover to see current wind gust speed)